• In Deutschland
  • Länderverzeichnis
  • Für 7 Tage
  • Wassertemperatur
  • Satellitenkarten
  • Wetterkarte
  • Widgets
  • user-avatar
    Anmelden

    Stündliche Wetter Michigan

    Heute, 17 Oktober, Mittwoch

    Zeit Temperatur Niederschläge Wind Luftdruck Luftfeuchtigkeit
    00:00 +3°C° 0 mm 4 m/S 723 mmHg 74%
    01:00 +3°C° 0 mm 4 m/S 723 mmHg 73%
    02:00 +1°C° 0 mm 4 m/S 723 mmHg 73%
    03:00 0°C° 0 mm 4 m/S 723 mmHg 72%
    04:00 0°C° 0 mm 4 m/S 724 mmHg 71%
    05:00 0°C° 0 mm 5 m/S 725 mmHg 70%
    06:00 0°C° 0 mm 5 m/S 725 mmHg 69%
    07:00 -1°C° 0 mm 6 m/S 726 mmHg 64%
    08:00 +1°C° 0 mm 6 m/S 726 mmHg 58%
    09:00 0°C° 0 mm 7 m/S 727 mmHg 53%
    10:00 +1°C° 0 mm 6 m/S 728 mmHg 53%
    11:00 +2°C° 0 mm 6 m/S 728 mmHg 53%
    12:00 +2°C° 0 mm 6 m/S 729 mmHg 52%
    13:00 +2°C° 0.1 mm 6 m/S 729 mmHg 53%
    14:00 +2°C° 0.1 mm 6 m/S 729 mmHg 53%
    15:00 +2°C° 0.1 mm 6 m/S 730 mmHg 53%
    16:00 +1°C° 0 mm 6 m/S 730 mmHg 56%
    17:00 0°C° 0 mm 5 m/S 731 mmHg 60%
    18:00 0°C° 0 mm 4 m/S 731 mmHg 63%
    19:00 -1°C° 0 mm 4 m/S 732 mmHg 64%
    20:00 -1°C° 0 mm 3 m/S 733 mmHg 65%
    21:00 -1°C° 0 mm 3 m/S 733 mmHg 67%
    22:00 -2°C° 0 mm 2 m/S 734 mmHg 68%
    23:00 -2°C° 0 mm 2 m/S 734 mmHg 69%

    Morgen, 18 Oktober, Donnerstag

    Zeit Temperatur Niederschläge Wind Luftdruck Luftfeuchtigkeit
    00:00 0°C° 0 mm 1 m/S 734 mmHg 70%
    01:00 -1°C° 0 mm 1 m/S 734 mmHg 70%
    02:00 -1°C° 0 mm 1 m/S 734 mmHg 71%
    03:00 -1°C° 0 mm 1 m/S 734 mmHg 72%
    04:00 -1°C° 0 mm 1 m/S 734 mmHg 72%
    05:00 -1°C° 0 mm 1 m/S 734 mmHg 71%
    06:00 -1°C° 0 mm 1 m/S 734 mmHg 71%
    07:00 -1°C° 0 mm 2 m/S 735 mmHg 63%
    08:00 +1°C° 0 mm 3 m/S 735 mmHg 55%
    09:00 +3°C° 0 mm 3 m/S 735 mmHg 47%
    10:00 +4°C° 0 mm 4 m/S 735 mmHg 45%
    11:00 +5°C° 0 mm 4 m/S 734 mmHg 43%
    12:00 +7°C° 0 mm 5 m/S 734 mmHg 41%
    13:00 +7°C° 0 mm 5 m/S 733 mmHg 44%
    14:00 +7°C° 0 mm 5 m/S 732 mmHg 46%
    15:00 +7°C° 0 mm 6 m/S 731 mmHg 48%
    16:00 +5°C° 0 mm 6 m/S 731 mmHg 53%
    17:00 +5°C° 0 mm 5 m/S 730 mmHg 59%
    18:00 +3°C° 0 mm 5 m/S 730 mmHg 64%
    19:00 +4°C° 0 mm 6 m/S 730 mmHg 70%
    20:00 +4°C° 0 mm 6 m/S 729 mmHg 75%
    21:00 +5°C° 0 mm 6 m/S 729 mmHg 80%
    22:00 +5°C° 0 mm 6 m/S 729 mmHg 82%
    23:00 +6°C° 0 mm 5 m/S 728 mmHg 84%

    übermorgen, 19 Oktober, Freitag

    Zeit Temperatur Niederschläge Wind Luftdruck Luftfeuchtigkeit
    00:00 +6°C° 0 mm 5 m/S 728 mmHg 86%
    01:00 +6°C° 0 mm 5 m/S 727 mmHg 88%
    02:00 +6°C° 0 mm 5 m/S 727 mmHg 90%
    03:00 +6°C° 0 mm 5 m/S 726 mmHg 92%
    04:00 +6°C° 0 mm 5 m/S 726 mmHg 91%
    05:00 +6°C° 0 mm 5 m/S 726 mmHg 90%
    06:00 +6°C° 0 mm 5 m/S 725 mmHg 89%
    07:00 +7°C° 0 mm 6 m/S 725 mmHg 82%
    08:00 +8°C° 0 mm 6 m/S 724 mmHg 75%
    09:00 +9°C° 0 mm 7 m/S 724 mmHg 67%
    10:00 +10°C° 0 mm 7 m/S 723 mmHg 61%
    11:00 +11°C° 0 mm 8 m/S 722 mmHg 54%
    12:00 +12°C° 0 mm 9 m/S 721 mmHg 47%
    13:00 +11°C° 0.1 mm 8 m/S 720 mmHg 54%
    14:00 +9°C° 0.1 mm 8 m/S 719 mmHg 60%
    15:00 +7°C° 0.1 mm 8 m/S 718 mmHg 67%
    16:00 +7°C° 0.1 mm 8 m/S 718 mmHg 72%
    17:00 +8°C° 0.1 mm 7 m/S 717 mmHg 77%
    18:00 +8°C° 0.1 mm 7 m/S 717 mmHg 82%
    19:00 +8°C° 0.5 mm 7 m/S 716 mmHg 84%
    20:00 +9°C° 0.5 mm 7 m/S 716 mmHg 87%
    21:00 +9°C° 0.5 mm 7 m/S 716 mmHg 90%
    22:00 +8°C° 0.6 mm 6 m/S 716 mmHg 88%
    23:00 +6°C° 0.6 mm 5 m/S 716 mmHg 86%

    20 Oktober, Samstag

    Zeit Temperatur Niederschläge Wind Luftdruck Luftfeuchtigkeit
    00:00 +5°C° 0.6 mm 5 m/S 716 mmHg 84%
    01:00 +5°C° 0.1 mm 5 m/S 717 mmHg 84%
    02:00 +3°C° 0.1 mm 5 m/S 717 mmHg 85%
    03:00 +3°C° 0.1 mm 5 m/S 717 mmHg 85%
    04:00 +3°C° 0.1 mm 5 m/S 717 mmHg 85%
    05:00 +2°C° 0.1 mm 5 m/S 718 mmHg 85%
    06:00 +2°C° 0.1 mm 5 m/S 718 mmHg 86%
    07:00 +2°C° 0.2 mm 6 m/S 718 mmHg 79%
    08:00 +2°C° 0.2 mm 6 m/S 719 mmHg 72%
    09:00 +2°C° 0.2 mm 7 m/S 719 mmHg 66%
    10:00 +2°C° 0.2 mm 7 m/S 720 mmHg 66%
    11:00 +2°C° 0.2 mm 6 m/S 720 mmHg 67%
    12:00 +2°C° 0.2 mm 6 m/S 720 mmHg 68%
    13:00 +2°C° 0.4 mm 7 m/S 721 mmHg 68%
    14:00 +2°C° 0.4 mm 7 m/S 722 mmHg 68%
    15:00 +1°C° 0.4 mm 8 m/S 722 mmHg 68%
    16:00 0°C° 0.1 mm 7 m/S 723 mmHg 69%
    17:00 -1°C° 0.1 mm 7 m/S 724 mmHg 69%
    18:00 -1°C° 0.1 mm 7 m/S 725 mmHg 70%
    19:00 -1°C° 0 mm 7 m/S 726 mmHg 71%
    20:00 -2°C° 0 mm 6 m/S 727 mmHg 72%
    21:00 -2°C° 0 mm 6 m/S 727 mmHg 73%
    22:00 -2°C° 0 mm 6 m/S 728 mmHg 74%
    23:00 -1°C° 0 mm 5 m/S 728 mmHg 74%

    21 Oktober, Sonntag

    Zeit Temperatur Niederschläge Wind Luftdruck Luftfeuchtigkeit
    00:00 -1°C° 0 mm 4 m/S 728 mmHg 75%
    01:00 -2°C° 0 mm 4 m/S 729 mmHg 76%
    02:00 -2°C° 0 mm 4 m/S 729 mmHg 77%
    03:00 -1°C° 0 mm 3 m/S 729 mmHg 78%
    04:00 -1°C° 0 mm 3 m/S 730 mmHg 78%
    05:00 -1°C° 0 mm 3 m/S 730 mmHg 77%
    06:00 -1°C° 0 mm 3 m/S 730 mmHg 77%
    07:00 -1°C° 0 mm 3 m/S 730 mmHg 71%
    08:00 -1°C° 0 mm 4 m/S 731 mmHg 65%
    09:00 0°C° 0 mm 4 m/S 731 mmHg 58%
    10:00 +1°C° 0 mm 4 m/S 730 mmHg 58%
    11:00 +1°C° 0 mm 4 m/S 730 mmHg 58%
    12:00 +3°C° 0 mm 4 m/S 730 mmHg 58%
    13:00 +3°C° 0 mm 4 m/S 729 mmHg 57%
    14:00 +3°C° 0 mm 4 m/S 728 mmHg 57%
    15:00 +3°C° 0 mm 5 m/S 728 mmHg 56%
    16:00 +3°C° 0 mm 4 m/S 727 mmHg 61%
    17:00 +1°C° 0 mm 4 m/S 727 mmHg 66%
    18:00 +1°C° 0 mm 3 m/S 727 mmHg 71%
    19:00 +1°C° 0 mm 3 m/S 726 mmHg 71%
    20:00 0°C° 0 mm 4 m/S 726 mmHg 72%
    21:00 +1°C° 0 mm 4 m/S 726 mmHg 72%
    22:00 +1°C° 0 mm 4 m/S 725 mmHg 71%
    23:00 +3°C° 0 mm 4 m/S 725 mmHg 71%

    22 Oktober, Montag

    Zeit Temperatur Niederschläge Wind Luftdruck Luftfeuchtigkeit
    00:00 +3°C° 0 mm 4 m/S 724 mmHg 70%
    01:00 +3°C° 0 mm 4 m/S 724 mmHg 73%
    02:00 +3°C° 0 mm 4 m/S 723 mmHg 76%
    03:00 +1°C° 0 mm 4 m/S 723 mmHg 79%
    04:00 +2°C° 0 mm 3 m/S 723 mmHg 83%
    05:00 +2°C° 0 mm 3 m/S 723 mmHg 87%
    06:00 +2°C° 0 mm 3 m/S 723 mmHg 91%
    07:00 +3°C° 0 mm 3 m/S 723 mmHg 86%
    08:00 +4°C° 0 mm 3 m/S 723 mmHg 80%
    09:00 +7°C° 0 mm 3 m/S 724 mmHg 75%
    10:00 +7°C° 0 mm 3 m/S 724 mmHg 73%
    11:00 +8°C° 0 mm 3 m/S 724 mmHg 72%
    12:00 +8°C° 0 mm 3 m/S 724 mmHg 71%
    13:00 +9°C° 0 mm 3 m/S 724 mmHg 70%
    14:00 +9°C° 0 mm 3 m/S 724 mmHg 70%
    15:00 +9°C° 0 mm 3 m/S 724 mmHg 70%
    16:00 +8°C° 0 mm 3 m/S 724 mmHg 77%
    17:00 +6°C° 0 mm 2 m/S 724 mmHg 85%
    18:00 +5°C° 0 mm 2 m/S 724 mmHg 93%
    19:00 +4°C° 0 mm 2 m/S 724 mmHg 93%
    20:00 +4°C° 0 mm 2 m/S 724 mmHg 94%
    21:00 +4°C° 0 mm 2 m/S 724 mmHg 95%
    22:00 +4°C° 0 mm 2 m/S 724 mmHg 93%
    23:00 +3°C° 0 mm 3 m/S 724 mmHg 91%
    Mehr zeigen